Zurück zum Katalog

COSMOS 1693

AktivMilitärPO
NORAD 16141·PAYLOAD·🇷🇺 Russia

Gestartet Oct 9, 1985 von Plesetsk Cosmodrome

Loading…

Nächste Überflüge (nächste 24 Stunden)

TLE

AktuellSource: Space-Track

Epoche: Sep 14, 2026, 13:59 UTC

1 16141U 85094D   26257.58320148  .00000018  00000-0  40114-4 0  9995
2 16141  82.6133 195.4204 0014609 187.8540 344.8489 12.64359080888839

Verfolge COSMOS 1693 in Echtzeit mit AllMySat

Download on the App Store